Location: ???? ????
(41.4149°N, 22.8816°E)
Time: 13:35:04
(UTC+00:00)

ERS-2 - Pass Details

Date: 14 July 2020
Orbit: 493 x 499 km, 98.5° (Epoch: 04 August)

Event Time Altitude Azimuth Distance (km) Brightness Sun altitude
Rises 02:26:46 0° 185° (S) 2,566 5.3 -7.2°
Reaches altitude 10° 02:28:58 10° 194° (SSW) 1,688 4.3 -6.8°
Maximum altitude 02:32:18 34° 261° (W) 829 2.8 -6.3°
Drops below altitude 10° 02:35:39 10° 328° (NNW) 1,699 4.9 -5.8°
Sets 02:37:52 0° 338° (NNW) 2,586 5.9 -5.5°
